Find Starlink 31675

NORAD ID: 59548 Int'l Des: 2024-074 Owner: SPXS Country: US Constellation: starlink operational
LEOCIRCULAR

Live Position

Loading 3D Globe...

About Starlink 31675

Description loading...

Upcoming Passes

Passes for default location (London). Set your location on the main map for personalized predictions.

Altitude History

Loading altitude history...

Two-Line Element Set

1 59548U 24074Q 26124.44781969 -.00008735 00000-0 -30836-3 0 9999
2 59548 43.0020 28.4720 0001293 270.2109 89.8595 15.27570984114548
Epoch: May 4, 2026 • Age: 8 hours

Current Status

Altitude 486.7 km
Velocity 7.63 km/s
Sub-Earth Point 41.55°N, 49.07°W
Launch Date Apr 18, 2024
Age 2 years
Type internet

Technical Details

Classification Payload
Mass 730.00 kg
Dry Mass 700.00 kg
Total Mass 730.00 kg
Length 0.30 m
Diameter 4.10 m
Span 29.00 m
Shape Box + pan
Manufacturer SPXS
Bus Type Starlink V2M
Phase Status In Orbit
Owner/State SPXS/US

Most Searched